Location: Newark
(25.0000°N, 73.5000°E)
Time: 00:51:36
(UTC+00:00)

Altair - Visible Passes

Search period start: 31 July 2021 00:00
Search period end: 10 August 2021 00:00
Orbit: 1502 x 1682 km, 47.2° (Epoch: 30 July)

Date Brightness Start Highest point End Pass type
(mag) Time Alt. Az. Time Alt. Az. Time Alt. Az.
31 Jul 8.0 20:06:33 50° NNE 20:06:33 50° NNE 20:13:16 10° NE visible
31 Jul 9.0 22:04:33 14° WNW 22:10:10 24° NNW 22:17:14 10° NNE visible
01 Aug 8.2 19:42:23 43° NNE 19:42:23 43° NNE 19:48:08 10° NE visible
01 Aug 8.9 21:40:22 18° WNW 21:44:48 25° NNW 21:52:06 10° NNE visible
01 Aug 9.4 23:47:12 10° NW 23:52:54 17° N 23:58:34 10° NE visible
02 Aug 8.5 19:18:09 36° NE 19:18:09 36° NE 19:23:00 10° NE visible
02 Aug 8.8 21:16:08 22° NW 21:19:27 27° NNW 21:26:58 10° NNE visible
02 Aug 9.4 23:21:48 10° NW 23:27:28 17° N 23:33:04 10° NE visible
03 Aug 8.7 18:53:53 30° NE 18:53:53 30° NE 18:57:51 10° NE visible
03 Aug 8.7 20:51:51 26° NW 20:54:07 29° NNW 21:01:51 10° NNE visible
03 Aug 9.4 22:56:21 10° NW 23:02:01 17° N 23:07:37 10° NE visible
04 Aug 8.9 18:29:33 25° NE 18:29:33 25° NE 18:32:42 10° NE visible
04 Aug 8.6 20:27:31 30° NW 20:28:46 31° NNW 20:36:44 10° NNE visible
04 Aug 9.4 22:30:53 10° NW 22:36:34 17° N 22:42:12 10° NE visible
05 Aug 9.0 18:05:09 21° NE 18:05:09 21° NE 18:07:32 10° NE visible
05 Aug 8.6 20:03:07 33° NNW 20:03:27 33° NNW 20:11:39 10° NNE visible
05 Aug 9.4 22:05:21 10° NW 22:11:07 17° N 22:16:49 10° NE visible
06 Aug 9.3 00:11:49 10° NNW 00:19:11 26° NNE 00:26:30 10° ENE visible
06 Aug 9.2 17:40:39 17° NE 17:40:39 17° NE 17:42:20 10° NE visible
06 Aug 8.5 19:38:36 35° NNW 19:38:36 35° NNW 19:46:33 10° NNE visible
06 Aug 9.4 21:39:48 10° NW 21:45:40 18° N 21:51:28 10° NE visible
06 Aug 9.4 23:46:40 10° NNW 23:53:49 24° NNE 00:00:56 10° ENE visible
07 Aug 9.2 17:16:01 14° NE 17:16:01 14° NE 17:17:08 10° NE visible
07 Aug 8.5 19:13:57 37° NNW 19:13:57 37° NNW 19:21:26 10° NE visible
07 Aug 9.4 21:14:12 10° NW 21:20:14 18° N 21:26:10 10° NNE visible
07 Aug 9.4 23:21:29 10° NNW 23:28:27 23° NNE 23:35:22 10° ENE visible
08 Aug 9.1 16:32:52 10° SSW 16:51:10 13° NE 16:51:55 10° NE visible
08 Aug 8.4 18:49:05 39° NNW 18:49:05 39° NNW 18:56:20 10° NE visible
08 Aug 9.4 20:48:36 10° NW 20:54:47 19° N 21:00:53 10° NNE visible
08 Aug 9.4 22:56:17 10° NNW 23:03:05 22° NNE 23:09:47 10° ENE visible
09 Aug 8.1 16:07:49 10° SSW 16:25:54 13° ENE 16:26:40 10° ENE visible
09 Aug 8.3 18:23:46 43° NNW 18:23:46 43° NNW 18:31:14 10° NE visible
09 Aug 9.3 20:22:58 10° NW 20:29:21 19° NNW 20:35:37 10° NNE visible
09 Aug 9.4 22:31:04 10° NNW 22:37:41 21° NNE 22:44:12 10° ENE visible
